Terminal Aerodrome Forecast
Issued by NWS St Louis, MO

Home | Current Version | Previous Version | Text Only | Print | Product List | Glossary On
Versions: 1 2 3 4 5 6 7 8 9 10 11 12 13 14 15 16 17 18 19 20 21 22 23 24 25 26 27 28
000
FTUS43 KLSX 212100 AAA
TAFSTL
TAF AMD
KSTL 212100Z 2121/2224 14011KT P6SM SCT025 OVC035
      TEMPO 2121/2123 BKN025
     FM221500 15010KT P6SM BKN015 OVC040
     FM221800 16012KT 4SM -RA BR OVC015=

USA.gov is the U.S. government's official web portal to all federal, state and local government web resources and services.